Wind_Speed
47 49 49 50 51 52 53 54 53 53 53 53 52 52 51 51 50 49 49 49 50 50 49 48 48 48 50 50 49 46 45 46 49 50 48 47 47 47 48 47 48 47 47 46 46 46 46 47 48 48 47 47 47 48 48 49 50 51 51 51 52 52
50 51 52 52 52 53 54 55 54 54 53 53 52 52 52 52 51 50 50 51 52 52 51 49 48 48 49 51 50 48 46 46 49 51 50 49 48 48 48 48 49 48 48 47 47 47 47 47 48 48 48 48 49 50 50 50 51 52 53 54 54 54
51 51 52 52 53 54 54 54 54 53 53 53 52 53 52 52 52 52 52 53 54 53 52 50 49 49 49 50 50 49 48 47 48 50 51 51 50 49 48 48 49 49 49 48 48 48 48 48 48 49 49 50 50 51 51 52 52 53 54 54 55 55
51 51 52 53 54 55 55 54 54 53 53 53 53 53 53 53 53 53 54 55 54 54 52 51 51 50 50 49 47 47 48 48 48 49 50 51 52 51 49 48 48 49 49 49 49 49 49 49 49 49 50 51 51 52 52 53 54 54 54 55 55 55
53 53 53 54 55 55 55 55 55 55 55 55 54 54 54 55 55 54 54 54 55 54 54 53 53 51 49 46 44 44 46 48 49 50 51 51 51 51 50 49 48 49 50 50 50 51 50 50 50 51 51 52 52 53 53 54 55 55 55 55 56 56
55 55 56 56 56 56 56 56 56 56 56 55 55 54 55 55 55 55 55 55 56 56 56 56 54 49 45 42 41 41 44 47 50 51 52 52 51 50 50 49 49 49 50 51 51 51 51 52 52 52 52 53 53 54 54 55 55 56 56 56 56 56
58 57 57 57 57 57 57 57 57 57 56 55 55 54 55 56 55 55 55 56 58 59 59 57 52 44 40 39 39 40 43 47 50 51 52 52 51 49 49 49 49 49 50 51 52 52 53 53 53 53 53 53 53 54 54 55 55 55 55 54 55 55
61 59 56 56 57 57 58 58 57 57 56 56 55 55 56 57 57 57 58 60 61 60 58 53 45 38 38 39 40 41 44 46 48 49 50 50 49 48 48 49 49 50 50 51 52 53 53 53 53 53 53 53 53 53 54 54 54 54 54 53 54 55
62 59 57 56 58 58 59 59 58 58 58 57 58 58 59 60 61 61 61 60 59 57 52 45 39 37 39 41 42 43 45 46 47 47 49 49 48 48 49 49 49 50 50 51 52 53 53 53 53 53 53 53 53 53 53 53 53 53 54 54 54 55
61 60 59 60 60 59 59 59 60 61 61 61 62 63 63 63 62 60 57 54 52 50 46 41 37 38 41 43 44 44 45 46 47 48 49 50 50 50 51 51 51 50 51 51 52 53 53 53 54 53 53 53 53 53 53 53 53 54 54 55 55 56
61 62 62 63 63 62 60 61 62 64 65 66 66 65 63 61 58 54 51 48 47 47 44 41 40 41 43 44 45 44 44 45 46 47 48 49 50 51 52 52 52 52 52 53 53 53 54 54 54 53 53 53 53 53 53 53 54 55 56 56 56 57
63 64 64 64 64 64 63 63 64 64 64 64 63 61 58 55 51 49 47 46 47 47 46 43 42 44 45 46 45 44 44 44 44 45 45 46 47 49 51 52 53 53 54 55 55 56 56 56 55 54 54 53 53 53 53 54 55 56 57 58 58 58
65 66 66 66 66 66 66 65 63 60 58 57 56 56 54 51 49 48 48 48 48 49 48 47 46 46 47 46 46 45 45 45 45 45 45 44 44 46 48 51 53 54 55 56 57 57 58 58 57 56 55 54 54 54 55 56 57 58 59 60 60 60
69 69 68 68 68 66 64 62 59 55 52 51 51 52 52 51 51 51 50 51 51 50 50 50 49 49 48 47 47 47 47 48 48 47 47 46 45 45 46 49 51 53 54 56 57 57 58 58 57 56 55 55 56 56 56 57 58 59 60 61 61 61
70 69 68 66 64 61 59 57 56 54 52 51 51 51 51 52 52 53 53 53 52 52 52 53 52 51 50 49 49 49 50 51 51 50 50 49 47 46 46 48 49 50 51 53 54 55 56 56 56 56 56 56 56 57 57 58 59 60 61 61 61 61
65 64 62 60 58 57 57 57 56 56 55 54 53 52 52 52 53 53 54 54 54 54 54 54 54 53 52 52 52 52 53 54 53 52 51 51 50 49 49 49 49 49 50 51 52 53 54 54 55 55 55 56 56 57 58 59 59 60 60 61 61 61
60 59 57 56 56 57 57 58 58 58 58 57 55 54 54 53 53 53 54 54 55 55 56 55 55 54 54 54 55 56 56 55 54 53 53 53 53 52 52 51 50 50 50 51 52 53 53 54 54 55 55 56 56 57 58 58 59 60 60 60 60 61
58 57 57 56 57 58 58 59 59 59 59 58 58 58 57 56 55 55 55 56 56 57 57 57 56 56 56 57 58 59 59 58 58 57 57 57 56 55 54 53 52 51 51 52 53 53 54 55 55 56 56 56 57 57 58 59 59 60 60 60 61 61
60 60 60 60 60 61 61 60 61 60 60 60 60 60 60 60 59 58 58 58 58 59 59 59 59 59 59 61 62 62 62 61 61 60 60 59 58 57 55 54 54 53 53 53 53 54 55 56 56 57 57 57 57 58 58 59 60 61 62 63 64 64
63 64 64 64 63 64 63 63 63 63 62 62 62 62 62 62 62 62 61 61 61 61 61 61 62 62 63 64 64 64 64 63 63 62 62 62 61 59 58 57 56 55 55 55 55 55 56 56 57 57 57 58 59 59 60 61 62 63 64 65 66 66
67 68 68 68 67 67 66 66 66 66 65 65 65 65 65 65 65 65 65 64 64 64 65 65 65 66 66 66 66 66 66 65 65 65 65 64 63 62 61 60 59 59 58 58 58 58 59 59 59 59 60 60 61 62 63 64 65 66 66 66 66 65
70 71 71 71 71 70 70 69 69 69 69 68 68 68 68 69 68 68 68 68 68 68 68 68 68 69 69 68 69 69 68 68 68 67 67 66 65 64 64 63 63 62 62 62 62 62 62 62 62 62 63 64 64 65 66 67 67 67 66 66 65 64
71 71 71 72 71 71 71 71 70 71 71 71 71 71 71 71 71 71 71 71 71 72 72 71 71 71 71 71 71 71 71 71 70 70 69 68 67 67 67 67 66 66 66 66 67 67 67 66 65 65 65 66 67 67 67 67 67 67 66 65 63 62
72 71 71 71 72 72 72 72 72 73 73 73 73 73 74 74 74 74 74 75 75 75 75 75 74 74 74 74 74 74 74 74 73 72 72 71 71 71 71 71 70 70 69 69 70 69 69 68 68 67 68 68 68 69 69 68 67 66 63 61 60 60
74 73 73 73 74 74 75 75 76 76 76 76 77 77 77 77 78 78 79 79 79 79 80 80 79 79 79 78 78 78 78 78 78 77 76 75 74 73 73 73 73 73 72 71 70 69 69 69 69 69 70 70 70 69 69 67 65 62 60 58 58 58
78 78 78 78 78 78 78 79 79 79 79 79 79 80 80 80 81 82 82 82 83 83 83 83 83 83 83 83 83 83 83 82 82 82 81 80 78 77 76 75 75 74 72 71 69 69 69 69 70 70 71 70 68 67 65 63 61 59 57 56 55 55
77 78 78 79 80 81 81 82 83 83 83 83 84 85 85 85 86 85 85 85 85 85 86 86 86 87 87 87 87 86 86 85 85 85 84 83 82 80 78 77 76 75 73 71 70 69 69 70 70 70 69 66 64 62 61 59 56 55 54 53 53 53
73 74 75 75 77 78 79 80 81 81 82 83 84 85 86 87 87 87 87 87 87 88 88 88 88 89 88 88 87 86 85 84 83 83 82 81 79 78 76 76 74 73 71 70 69 68 67 67 66 64 62 60 58 57 55 52 51 51 50 51 51 52
67 68 69 69 71 72 72 72 73 74 75 76 77 79 80 82 83 84 85 85 85 85 85 85 85 84 83 82 82 81 80 79 78 76 75 73 72 71 70 70 69 68 66 65 63 62 61 60 59 58 56 54 51 49 47 47 47 48 49 50 51 52
61 62 62 62 64 65 66 67 68 69 70 72 73 74 75 75 76 77 77 77 77 76 76 76 75 75 74 75 75 74 74 72 70 67 65 64 63 62 61 60 59 58 57 56 56 56 56 55 54 52 50 47 45 44 45 46 47 48 50 52 53 54
61 60 61 63 66 68 69 70 70 71 71 71 71 71 71 71 70 69 68 68 67 67 66 66 66 66 67 67 67 66 65 63 61 58 56 54 54 54 53 52 50 48 47 47 48 48 48 47 46 44 44 44 45 47 48 48 49 50 52 53 53 54
66 68 71 72 73 72 72 72 72 71 71 70 69 67 66 64 63 61 61 61 60 61 61 61 61 61 61 59 58 58 57 55 54 53 49 47 47 49 48 46 44 41 40 41 42 43 43 43 44 44 46 48 49 50 50 51 51 51 52 53 53 54
77 79 79 78 75 73 72 71 71 70 69 68 67 65 63 61 60 60 59 59 60 60 58 58 59 58 56 53 51 50 50 51 51 49 45 43 45 46 44 42 43 43 43 42 43 44 45 46 47 48 49 51 52 51 51 51 51 51 52 53 53 54
82 82 81 79 77 75 73 72 71 70 70 69 67 66 65 64 63 62 61 62 62 60 57 56 56 55 53 50 48 48 50 52 53 52 51 50 48 45 44 46 49 49 47 45 45 46 48 49 49 50 51 52 52 52 51 51 51 52 53 53 53 53
85 84 83 81 80 78 77 75 75 75 74 74 73 72 71 70 69 68 66 66 65 63 61 57 52 51 51 51 51 53 56 57 58 58 57 54 51 50 50 51 51 50 48 48 48 48 50 51 51 52 53 53 52 51 51 52 52 52 52 52 51 50
88 87 86 85 83 82 80 79 78 77 77 77 77 77 76 75 74 71 69 67 64 61 58 55 54 57 61 61 61 62 62 61 60 58 53 50 51 52 52 50 49 48 48 49 50 50 52 52 53 54 56 55 52 51 52 52 51 51 50 50 49 49
89 88 88 87 86 85 83 82 81 80 79 78 78 78 78 77 74 70 67 66 64 60 59 61 64 69 71 69 67 65 63 62 60 56 51 50 52 53 53 52 51 51 50 50 51 52 52 53 54 56 56 55 52 52 51 50 50 49 49 48 49 49
88 87 87 87 86 85 84 84 84 84 83 82 81 80 79 77 74 70 68 68 67 67 69 70 70 70 69 66 64 63 62 63 60 54 49 50 51 53 54 55 54 53 52 51 52 52 53 53 54 56 56 55 53 51 50 49 49 49 48 49 49 49
Wind_Direction
271 272 273 274 275 276 277 277 278 280 281 283 284 286 288 289 290 291 293 294 295 297 298 299 301 303 305 304 301 295 288 283 281 282 281 279 278 278 278 278 278 279 279 278 279 280 281 282 282 282 282 282 283 284 284 284 284 285 286 287 287 288
269 270 271 272 273 273 274 276 278 279 281 282 284 285 287 288 290 292 293 294 295 296 297 298 301 303 303 301 298 293 286 281 278 279 280 279 277 277 277 277 278 278 278 277 278 280 281 281 281 281 281 282 283 284 285 285 286 287 288 288 289 290
270 271 272 273 274 274 275 276 278 280 281 283 284 285 287 289 290 292 293 293 294 295 296 298 301 302 301 298 295 291 285 280 277 277 278 279 277 276 276 277 277 278 278 278 278 280 280 280 280 280 281 282 284 285 285 286 286 287 288 289 290 290
272 273 274 275 275 276 277 279 280 281 283 284 285 287 288 289 291 292 292 293 293 294 295 298 299 300 298 295 292 288 284 279 277 277 277 277 277 277 277 277 277 277 278 278 279 279 280 279 279 280 281 283 284 285 285 286 287 288 289 290 290 290
274 275 275 275 276 277 279 281 282 283 284 285 287 288 289 290 291 291 292 292 292 293 295 297 298 298 295 291 288 286 280 276 276 276 276 276 276 276 276 277 277 278 279 279 280 280 280 280 280 281 282 283 284 284 286 287 288 289 289 290 290 290
277 277 277 277 278 279 280 281 282 283 284 286 287 288 288 289 290 290 291 291 292 293 295 296 297 296 291 287 286 283 277 274 274 275 276 276 276 276 276 276 277 278 279 280 281 281 281 281 281 281 282 283 284 285 286 287 288 288 289 289 289 290
277 278 278 278 279 280 281 281 282 284 285 286 287 288 288 289 289 289 290 291 292 294 294 295 296 292 286 285 286 283 278 274 274 276 277 278 279 278 277 277 277 277 278 279 279 280 280 281 281 282 283 283 284 285 285 286 287 287 288 288 289 289
277 278 278 280 281 281 281 282 283 284 285 286 287 287 287 288 288 290 291 292 293 294 293 294 293 286 281 283 284 282 279 278 278 279 280 281 282 282 281 280 278 278 278 278 278 279 280 281 282 282 283 284 284 285 285 286 286 287 287 288 289 289
277 279 280 281 282 282 282 283 284 285 286 286 287 287 288 289 290 291 292 293 293 292 292 293 288 281 280 282 282 281 282 282 283 284 283 284 285 284 283 282 280 279 279 279 279 280 280 281 282 283 284 284 285 285 285 286 286 287 288 288 289 290
276 278 280 280 280 281 283 285 286 287 288 288 288 289 290 291 292 293 293 292 291 291 291 291 286 281 280 281 282 284 285 285 286 286 286 286 286 284 283 282 282 281 280 280 280 280 280 280 281 282 283 284 285 286 286 287 287 288 289 290 290 290
276 277 278 278 280 282 284 285 286 288 289 289 290 290 291 291 292 292 292 291 290 289 289 287 285 283 282 282 284 286 287 288 288 288 287 286 284 283 283 282 282 282 282 281 281 281 281 281 281 282 283 284 285 286 286 287 287 289 290 290 290 290
276 276 277 278 280 282 284 285 285 286 287 288 289 290 290 291 291 291 291 291 289 288 286 285 284 283 284 285 287 288 290 292 293 292 290 287 283 281 281 281 281 281 281 282 282 283 283 283 283 283 284 285 286 287 287 288 289 290 291 291 291 290
276 277 278 279 280 282 283 284 284 284 284 284 285 286 287 288 289 290 290 289 288 287 286 286 285 284 285 286 288 290 293 295 296 295 293 289 285 281 279 279 279 279 280 281 282 283 283 283 283 284 285 286 287 288 288 289 290 291 291 292 292 291
274 275 277 279 280 281 281 282 283 282 282 281 282 283 284 286 286 287 287 287 286 286 286 286 286 286 286 286 288 291 294 297 297 296 294 291 288 283 280 278 278 278 278 278 279 280 281 282 282 283 285 285 286 287 287 288 289 290 291 291 292 291
272 274 276 277 277 279 280 281 282 282 282 281 281 282 283 284 285 286 286 286 285 285 285 285 285 285 286 287 289 292 295 297 297 295 293 292 290 287 283 281 280 279 278 277 277 277 278 279 280 281 282 283 284 285 286 287 288 289 289 290 290 291
271 272 273 274 276 278 280 281 282 283 284 284 283 283 283 284 284 285 285 285 285 285 284 284 284 285 286 288 290 293 295 296 296 294 293 292 291 290 288 286 284 283 281 279 278 277 277 277 278 278 279 281 282 283 284 285 286 287 288 289 290 290
270 271 271 273 276 278 280 281 282 284 285 285 285 285 285 285 285 284 283 282 282 283 283 283 284 284 286 288 291 293 295 295 295 294 293 292 292 291 290 289 287 285 283 281 280 279 279 278 279 279 280 280 281 282 283 284 285 287 288 289 290 290
269 270 272 274 276 277 278 279 280 281 282 283 284 285 285 285 284 283 281 281 281 281 281 282 283 284 286 288 290 292 293 293 294 294 293 293 292 291 290 289 288 286 284 282 281 281 281 281 281 281 282 282 283 284 285 285 286 287 288 290 291 291
270 271 272 274 276 276 276 276 277 278 279 280 281 282 283 284 283 282 281 281 280 280 280 281 282 283 285 287 289 290 292 293 293 293 293 292 291 290 289 287 286 285 284 283 283 283 283 283 283 284 284 285 285 286 286 287 287 288 289 290 292 292
270 271 272 274 275 275 275 275 276 277 277 278 278 279 280 281 282 282 282 281 280 279 279 279 281 282 285 287 288 290 291 291 292 292 291 291 290 288 287 286 285 285 285 285 285 285 285 285 285 285 286 286 286 286 287 288 289 290 290 291 291 291
270 271 273 274 274 275 275 276 276 277 277 278 278 279 280 280 281 281 281 281 280 279 278 279 280 282 284 286 288 289 289 289 289 289 289 289 288 287 286 285 285 285 285 286 286 286 287 286 287 287 287 286 286 287 287 288 289 290 290 291 290 290
270 271 272 273 274 274 275 275 276 277 277 278 278 279 280 280 281 281 280 280 279 279 279 279 281 283 284 286 287 287 287 287 287 287 287 287 287 286 285 285 285 286 286 286 287 288 288 288 288 287 287 287 287 287 288 289 289 290 290 290 290 289
271 271 272 272 273 274 274 275 275 276 277 277 278 278 279 279 279 280 280 280 279 279 279 279 281 282 283 284 285 285 285 285 285 286 286 286 286 285 285 286 286 286 287 287 287 288 288 288 288 287 287 287 287 288 289 290 290 290 290 290 289 288
271 271 272 273 274 274 274 274 275 275 276 276 277 277 277 278 278 278 279 279 279 279 279 279 280 280 281 282 283 283 283 283 283 284 284 285 285 285 285 285 286 286 287 288 288 288 287 287 286 286 287 287 288 289 290 290 291 291 290 288 286 285
270 271 271 272 273 273 273 274 274 274 275 275 275 275 275 276 276 277 277 277 278 278 278 278 278 279 280 281 281 282 282 282 282 282 283 283 284 284 285 285 286 287 288 288 288 287 287 286 286 287 288 288 289 289 290 290 290 288 286 284 282 282
267 268 269 269 270 270 271 271 272 272 273 273 273 274 274 275 275 275 275 275 276 276 276 276 277 277 279 280 281 281 281 281 281 281 282 283 284 284 284 285 286 287 288 288 288 287 286 285 285 286 288 289 289 289 288 286 284 282 281 280 281 282
266 267 267 267 268 268 268 268 269 269 270 270 271 272 273 273 274 274 274 274 274 275 275 276 277 278 279 280 281 281 281 281 281 282 282 283 284 284 285 285 285 286 286 286 285 284 284 285 286 288 289 289 287 285 282 279 279 279 280 282 284 286
269 268 268 268 268 269 269 269 269 270 270 270 271 271 272 273 273 274 274 274 275 275 276 277 278 279 280 281 281 282 282 282 282 283 283 284 284 285 285 285 284 284 283 283 283 283 284 286 287 287 285 282 280 278 277 278 280 283 285 287 288 287
269 269 269 269 270 270 270 271 272 272 272 273 273 273 273 274 274 274 275 275 276 276 277 277 278 279 280 280 281 282 282 283 283 284 285 285 284 284 283 282 282 282 282 282 283 282 282 282 281 279 277 276 277 279 282 285 286 288 288 288 287 287
265 266 267 269 270 271 272 273 274 274 275 275 275 275 275 274 274 275 275 276 277 277 278 278 279 279 280 281 282 282 283 284 285 285 285 285 284 283 283 283 283 282 280 279 277 276 275 274 274 274 276 279 283 287 289 290 289 288 287 287 287 287
262 263 266 269 271 273 274 274 274 274 274 274 273 273 273 273 274 275 276 277 278 278 279 280 280 281 281 282 282 283 284 284 285 286 285 285 285 283 281 279 277 276 275 275 274 274 273 274 276 279 283 287 290 292 291 290 288 287 286 286 286 287
265 268 271 273 273 272 272 273 273 272 272 271 271 271 271 272 273 275 277 278 279 280 281 281 280 280 280 281 282 283 283 284 285 283 279 279 279 277 274 272 272 276 280 282 281 280 280 281 284 286 289 292 293 292 290 288 287 286 285 285 286 287
269 272 273 274 274 273 271 271 271 270 270 269 269 269 270 272 273 275 276 278 279 280 280 279 278 278 278 279 282 283 284 287 285 277 274 277 278 275 275 277 280 285 288 287 284 282 282 283 285 287 290 292 292 290 288 286 286 286 286 287 288 288
270 271 272 272 273 272 271 270 270 270 270 269 269 269 270 273 274 275 276 277 277 277 278 278 277 276 276 279 282 283 286 290 285 278 279 284 281 275 276 281 284 287 288 286 282 280 278 279 282 285 290 292 290 288 287 287 287 287 288 287 287 287
270 270 270 271 271 270 270 269 268 268 269 269 270 270 271 273 274 275 276 276 275 275 275 275 273 274 276 279 281 283 288 289 285 279 281 282 277 273 277 281 283 285 286 284 281 278 277 277 280 285 290 292 289 287 287 287 287 287 286 285 286 287
270 270 270 270 270 270 269 268 268 267 267 268 269 270 271 272 273 274 274 274 273 272 270 268 271 277 280 281 281 284 288 287 282 277 275 273 272 273 276 279 282 285 285 284 282 280 278 277 279 284 290 292 289 287 286 286 284 284 284 285 286 288
270 270 270 270 270 269 269 268 268 268 267 267 267 268 269 270 271 272 272 271 270 267 265 269 277 282 283 283 285 288 288 284 278 272 268 267 270 273 275 278 282 284 285 285 283 280 279 278 280 285 290 291 288 285 284 283 282 283 284 286 287 289
270 270 270 270 269 269 268 268 268 267 267 267 267 268 269 269 270 270 270 270 269 268 271 277 282 283 284 287 290 288 284 279 274 268 265 266 268 271 274 278 282 285 287 287 284 281 279 279 282 286 290 289 285 282 281 281 282 284 285 286 287 288
Height
5807 5806 5806 5805 5805 5804 5803 5802 5802 5803 5803 5802 5801 5800 5799 5798 5797 5796 5794 5793 5791 5790 5789 5787 5786 5784 5782 5780 5779 5777 5775 5773 5772 5770 5769 5767 5766 5764 5763 5762 5761 5759 5758 5757 5756 5755 5754 5753 5751 5750 5749 5747 5746 5744 5743 5741 5739 5737 5736 5734 5732 5731
5801 5800 5800 5800 5800 5799 5797 5797 5797 5797 5796 5795 5795 5794 5793 5792 5791 5790 5788 5787 5785 5784 5783 5782 5781 5780 5777 5775 5773 5770 5769 5767 5766 5764 5762 5761 5760 5758 5757 5756 5754 5753 5752 5751 5750 5749 5748 5746 5745 5744 5742 5741 5739 5738 5736 5735 5733 5731 5729 5727 5726 5724
5794 5794 5793 5793 5792 5791 5790 5791 5791 5790 5789 5789 5788 5787 5786 5785 5785 5784 5782 5780 5779 5778 5777 5776 5775 5774 5772 5769 5767 5764 5762 5761 5759 5758 5756 5754 5753 5752 5751 5750 5748 5747 5746 5745 5744 5743 5741 5740 5738 5737 5736 5735 5733 5732 5730 5728 5727 5725 5723 5721 5719 5718
5787 5786 5786 5784 5784 5783 5783 5783 5784 5783 5782 5782 5781 5781 5780 5779 5778 5777 5776 5774 5773 5771 5771 5770 5769 5768 5766 5763 5761 5758 5756 5754 5753 5751 5749 5748 5746 5745 5744 5743 5742 5741 5740 5739 5738 5736 5735 5734 5732 5731 5730 5729 5727 5726 5724 5722 5720 5719 5717 5715 5713 5711
5778 5778 5777 5776 5776 5776 5776 5777 5776 5776 5776 5775 5775 5774 5773 5772 5771 5770 5769 5767 5766 5765 5765 5764 5763 5761 5759 5757 5755 5752 5750 5748 5747 5745 5743 5742 5741 5740 5738 5737 5736 5735 5734 5733 5732 5730 5729 5728 5726 5725 5724 5722 5721 5719 5717 5715 5713 5711 5710 5708 5706 5704
5770 5769 5769 5768 5768 5769 5770 5770 5770 5770 5769 5769 5769 5768 5767 5766 5765 5764 5763 5761 5760 5759 5758 5757 5756 5755 5753 5751 5749 5746 5744 5742 5740 5739 5737 5736 5735 5735 5733 5732 5731 5730 5728 5727 5725 5724 5723 5721 5720 5719 5717 5716 5714 5712 5711 5709 5707 5705 5703 5701 5699 5697
5761 5761 5760 5760 5762 5762 5763 5763 5763 5763 5763 5763 5763 5762 5760 5759 5758 5757 5756 5755 5753 5752 5751 5750 5749 5748 5746 5744 5743 5740 5738 5736 5734 5733 5732 5730 5729 5729 5728 5727 5725 5724 5723 5721 5719 5718 5716 5715 5713 5712 5711 5709 5708 5706 5704 5702 5700 5699 5697 5695 5693 5691
5753 5753 5753 5753 5754 5755 5755 5756 5756 5756 5756 5756 5755 5755 5753 5752 5751 5751 5750 5748 5746 5744 5743 5743 5743 5742 5740 5738 5736 5734 5732 5730 5728 5727 5726 5725 5724 5723 5722 5721 5719 5718 5716 5715 5713 5712 5710 5709 5707 5706 5704 5703 5701 5699 5698 5696 5694 5692 5691 5689 5687 5685
5745 5745 5746 5746 5746 5746 5747 5747 5748 5749 5749 5749 5748 5747 5746 5744 5744 5743 5742 5741 5739 5737 5736 5736 5736 5735 5733 5731 5729 5728 5726 5724 5723 5722 5720 5719 5718 5716 5715 5714 5713 5711 5710 5708 5707 5706 5704 5703 5701 5700 5698 5696 5695 5693 5691 5690 5688 5686 5684 5683 5681 5678
5739 5739 5739 5739 5737 5738 5739 5740 5740 5740 5740 5740 5739 5738 5737 5736 5735 5735 5734 5733 5731 5729 5730 5730 5729 5728 5726 5725 5724 5723 5721 5720 5718 5717 5715 5713 5711 5710 5709 5707 5706 5705 5703 5702 5701 5700 5698 5697 5695 5693 5692 5690 5688 5687 5685 5683 5681 5679 5677 5676 5674 5672
5734 5733 5732 5731 5730 5731 5733 5734 5733 5732 5731 5730 5729 5729 5728 5727 5727 5727 5726 5725 5724 5722 5723 5723 5722 5721 5720 5719 5718 5717 5716 5715 5713 5711 5710 5708 5706 5704 5703 5701 5700 5699 5697 5696 5695 5694 5692 5690 5689 5687 5685 5684 5682 5681 5679 5677 5675 5673 5670 5669 5667 5665
5726 5725 5724 5724 5725 5725 5727 5727 5726 5726 5725 5723 5721 5720 5720 5720 5719 5719 5718 5718 5717 5715 5715 5716 5715 5714 5713 5712 5712 5711 5710 5709 5707 5706 5704 5702 5701 5699 5697 5696 5694 5693 5691 5690 5689 5687 5686 5684 5682 5680 5679 5677 5676 5674 5672 5670 5668 5666 5664 5662 5660 5658
5718 5717 5717 5718 5718 5718 5719 5719 5719 5719 5719 5717 5716 5714 5713 5713 5713 5713 5712 5711 5710 5708 5708 5708 5708 5708 5707 5706 5705 5704 5703 5702 5701 5699 5697 5696 5695 5693 5691 5690 5688 5687 5685 5684 5683 5681 5679 5677 5675 5674 5672 5671 5669 5667 5665 5663 5661 5659 5657 5655 5653 5650
5711 5711 5711 5712 5711 5711 5711 5711 5711 5712 5712 5711 5710 5709 5708 5708 5707 5706 5706 5705 5703 5702 5701 5700 5700 5700 5699 5699 5697 5696 5695 5694 5693 5692 5690 5689 5688 5686 5685 5683 5682 5681 5679 5678 5677 5675 5673 5671 5669 5668 5666 5664 5662 5660 5658 5656 5654 5652 5650 5648 5645 5643
5705 5706 5706 5705 5705 5704 5704 5704 5704 5704 5704 5704 5704 5703 5702 5701 5700 5699 5699 5697 5696 5696 5695 5693 5693 5692 5691 5691 5689 5688 5687 5686 5685 5684 5682 5681 5680 5679 5678 5676 5675 5674 5672 5671 5670 5669 5667 5665 5663 5661 5659 5657 5655 5653 5651 5649 5647 5645 5643 5640 5638 5636
5701 5701 5701 5700 5699 5698 5697 5697 5697 5697 5697 5696 5696 5696 5695 5694 5693 5692 5691 5690 5689 5688 5687 5686 5686 5685 5684 5683 5682 5681 5679 5678 5677 5676 5674 5673 5672 5671 5670 5668 5667 5666 5665 5664 5663 5661 5660 5658 5656 5654 5652 5651 5649 5646 5644 5642 5640 5638 5636 5633 5631 5629
5695 5695 5695 5694 5694 5693 5691 5690 5690 5689 5689 5688 5688 5688 5688 5687 5687 5685 5684 5683 5682 5681 5680 5679 5679 5678 5677 5676 5674 5673 5672 5670 5669 5668 5667 5665 5664 5663 5662 5660 5659 5658 5657 5656 5655 5653 5652 5650 5648 5647 5645 5643 5641 5639 5637 5635 5633 5631 5628 5625 5623 5621
5687 5688 5689 5688 5687 5687 5685 5684 5683 5683 5682 5681 5680 5680 5679 5679 5679 5678 5677 5677 5676 5674 5673 5672 5672 5671 5670 5668 5667 5665 5664 5663 5661 5660 5659 5657 5656 5655 5653 5652 5651 5650 5649 5647 5646 5645 5643 5642 5640 5638 5637 5635 5633 5631 5629 5627 5625 5623 5621 5618 5616 5613
5681 5681 5681 5681 5680 5679 5678 5677 5676 5676 5675 5675 5673 5672 5672 5671 5671 5670 5670 5670 5669 5667 5666 5665 5664 5663 5662 5661 5659 5658 5656 5655 5653 5652 5651 5649 5648 5646 5645 5644 5642 5641 5640 5639 5638 5636 5635 5633 5631 5630 5628 5627 5625 5623 5621 5619 5616 5615 5612 5610 5608 5605
5673 5673 5672 5673 5672 5670 5670 5670 5669 5669 5668 5667 5666 5666 5665 5664 5663 5662 5662 5662 5661 5660 5659 5657 5656 5655 5654 5652 5651 5650 5648 5647 5645 5644 5643 5641 5640 5639 5637 5636 5634 5633 5632 5630 5629 5627 5625 5624 5622 5621 5620 5618 5616 5614 5612 5610 5607 5605 5603 5601 5599 5596
5666 5665 5665 5665 5664 5663 5662 5661 5661 5661 5661 5660 5659 5659 5658 5657 5656 5655 5655 5654 5653 5652 5651 5649 5648 5647 5645 5644 5643 5641 5640 5639 5637 5636 5635 5633 5632 5630 5629 5627 5626 5624 5623 5621 5620 5618 5616 5615 5613 5612 5611 5609 5608 5606 5604 5602 5599 5596 5594 5592 5589 5587
5659 5659 5658 5657 5656 5655 5654 5653 5654 5653 5653 5652 5652 5651 5650 5649 5649 5648 5647 5646 5645 5644 5643 5641 5640 5638 5637 5635 5634 5633 5631 5630 5628 5627 5626 5624 5623 5622 5620 5619 5617 5615 5614 5612 5611 5609 5608 5606 5604 5603 5601 5600 5598 5596 5594 5592 5590 5587 5585 5582 5580 5577
5651 5651 5651 5650 5649 5648 5647 5646 5646 5645 5645 5645 5644 5643 5642 5641 5641 5640 5638 5638 5637 5635 5634 5633 5631 5630 5628 5626 5625 5624 5622 5621 5619 5618 5616 5615 5614 5613 5611 5610 5608 5607 5605 5604 5602 5601 5599 5597 5595 5594 5592 5590 5588 5586 5584 5582 5580 5578 5575 5573 5571 5568
5643 5642 5642 5642 5641 5640 5638 5637 5637 5637 5636 5636 5635 5634 5633 5633 5632 5630 5630 5629 5627 5626 5625 5624 5622 5621 5619 5617 5616 5615 5613 5612 5610 5608 5607 5606 5605 5603 5602 5601 5599 5597 5596 5594 5593 5591 5590 5588 5586 5584 5583 5581 5579 5577 5574 5572 5570 5568 5566 5564 5562 5560
5634 5634 5633 5633 5632 5631 5629 5628 5628 5627 5627 5626 5625 5624 5624 5623 5622 5621 5620 5619 5618 5617 5615 5614 5612 5611 5610 5608 5607 5605 5604 5602 5601 5599 5598 5596 5595 5594 5593 5591 5590 5588 5586 5585 5584 5582 5581 5579 5577 5575 5573 5571 5569 5567 5565 5563 5561 5559 5557 5556 5554 5552
5623 5624 5623 5622 5621 5620 5620 5618 5618 5618 5617 5616 5614 5613 5613 5612 5611 5611 5610 5608 5607 5606 5605 5603 5602 5601 5600 5598 5597 5595 5594 5592 5591 5589 5587 5586 5585 5584 5583 5582 5580 5578 5577 5575 5574 5572 5571 5569 5567 5565 5563 5561 5559 5557 5555 5554 5552 5550 5549 5547 5545 5543
5612 5613 5612 5611 5609 5608 5608 5607 5607 5608 5607 5605 5604 5603 5602 5601 5600 5599 5599 5597 5597 5595 5594 5593 5592 5590 5589 5588 5586 5585 5583 5581 5580 5578 5577 5575 5574 5573 5572 5571 5570 5568 5567 5566 5564 5562 5561 5559 5557 5555 5553 5551 5550 5549 5547 5545 5543 5542 5540 5538 5537 5535
5601 5601 5601 5601 5599 5597 5597 5596 5596 5596 5596 5594 5593 5592 5591 5589 5588 5587 5587 5586 5585 5584 5583 5582 5581 5579 5578 5577 5575 5574 5572 5570 5569 5567 5566 5564 5563 5562 5561 5559 5558 5557 5556 5555 5553 5552 5550 5549 5547 5545 5544 5543 5542 5540 5538 5536 5535 5533 5532 5531 5530 5528
5591 5590 5591 5591 5589 5587 5587 5587 5585 5584 5584 5583 5582 5581 5580 5579 5578 5576 5575 5575 5574 5573 5572 5571 5570 5569 5568 5566 5564 5563 5561 5559 5558 5557 5555 5554 5552 5551 5550 5548 5547 5547 5546 5545 5544 5542 5541 5540 5538 5537 5536 5534 5533 5532 5530 5529 5527 5526 5525 5524 5523 5521
5581 5580 5581 5581 5580 5578 5578 5578 5576 5575 5574 5573 5572 5570 5570 5569 5567 5566 5565 5564 5563 5562 5561 5561 5560 5559 5557 5556 5554 5552 5551 5550 5548 5547 5546 5544 5542 5541 5540 5539 5538 5538 5536 5535 5534 5533 5532 5531 5530 5529 5528 5527 5526 5524 5523 5522 5521 5519 5518 5516 5515 5513
5570 5570 5571 5572 5570 5569 5569 5568 5567 5566 5565 5563 5562 5561 5560 5559 5558 5557 5556 5555 5554 5553 5552 5551 5550 5549 5548 5547 5545 5544 5542 5541 5540 5538 5537 5535 5534 5533 5532 5531 5530 5529 5528 5527 5526 5525 5524 5523 5522 5522 5521 5520 5519 5517 5516 5515 5513 5512 5510 5508 5507 5505
5558 5559 5561 5561 5560 5559 5559 5559 5557 5556 5555 5553 5552 5551 5550 5549 5549 5548 5547 5546 5545 5545 5544 5543 5542 5541 5540 5539 5537 5536 5535 5533 5532 5531 5530 5529 5528 5526 5524 5523 5521 5520 5520 5519 5518 5517 5517 5515 5515 5514 5513 5512 5511 5509 5508 5507 5505 5504 5502 5500 5499 5497
5548 5548 5549 5548 5548 5548 5548 5548 5547 5546 5545 5543 5542 5541 5541 5540 5540 5539 5539 5538 5537 5537 5537 5535 5534 5533 5532 5531 5531 5529 5528 5526 5525 5524 5523 5522 5521 5519 5517 5515 5514 5513 5513 5512 5511 5510 5509 5508 5507 5507 5506 5504 5503 5501 5499 5498 5496 5495 5494 5492 5491 5489
5538 5537 5537 5537 5536 5536 5536 5537 5537 5536 5534 5534 5533 5532 5532 5532 5531 5531 5530 5530 5529 5529 5528 5527 5526 5525 5524 5524 5523 5522 5521 5520 5519 5517 5516 5515 5514 5512 5510 5508 5507 5506 5505 5505 5504 5503 5501 5500 5499 5499 5497 5496 5494 5492 5491 5489 5487 5486 5485 5484 5482 5481
5526 5526 5526 5525 5525 5524 5525 5526 5526 5525 5524 5524 5523 5523 5523 5523 5522 5522 5522 5521 5520 5520 5519 5518 5517 5517 5516 5515 5515 5514 5514 5512 5510 5508 5507 5507 5505 5504 5502 5500 5499 5498 5498 5497 5496 5494 5493 5492 5491 5490 5489 5487 5485 5484 5482 5481 5479 5478 5477 5475 5474 5473
5512 5513 5513 5513 5513 5513 5512 5513 5513 5513 5512 5513 5513 5513 5513 5513 5513 5513 5513 5511 5510 5510 5509 5509 5508 5507 5507 5507 5507 5506 5505 5504 5502 5499 5498 5497 5496 5495 5493 5492 5491 5490 5490 5489 5487 5486 5484 5483 5483 5482 5480 5479 5477 5475 5474 5473 5472 5470 5469 5468 5466 5465
5499 5500 5499 5500 5500 5500 5500 5501 5501 5500 5500 5501 5501 5501 5502 5503 5503 5504 5503 5502 5501 5500 5499 5499 5499 5498 5497 5498 5498 5498 5497 5496 5493 5490 5489 5487 5486 5485 5484 5483 5483 5482 5481 5480 5479 5477 5476 5475 5474 5473 5471 5470 5469 5467 5466 5465 5464 5462 5461 5460 5459 5457
5486 5486 5486 5486 5487 5487 5488 5489 5488 5487 5487 5488 5488 5489 5491 5492 5492 5492 5492 5491 5491 5490 5489 5489 5489 5488 5488 5489 5490 5489 5488 5486 5484 5481 5480 5478 5477 5476 5475 5475 5474 5473 5472 5471 5470 5469 5468 5466 5465 5464 5463 5462 5461 5460 5459 5458 5456 5455 5453 5452 5451 5449